Kazan, Russia

8:09 PM MSK on December 12, 2019 (GMT +0300)
Kazan

Weather History for UWKD - October, 2019

Change the Weather History Date:

Wednesday, October 9, 2019

  Actual Average (WUND) Record (WUND)
Temperature  
Mean Temperature 37 °F -  
Max Temperature 42 °F - - (-1)
Min Temperature 32 °F - - (-1)
Degree Days  
Heating Degree Days 28    
Moisture  
Dew Point 34 °F    
Average Humidity 85    
Maximum Humidity 100    
Minimum Humidity 60    
Precipitation  
Precipitation 0.00 in - - ()
Sea Level Pressure  
Sea Level Pressure 30.01 in    
Wind  
Wind Speed 6 mph ()    
Max Wind Speed 13 mph    
Max Gust Speed -    
Visibility 5.7 miles    
Events Rain    
Averages and records for this station are not official NWS values.
T = Trace of Precipitation, MM = Missing Value Source: Averaged Metar Reports

Daily Weather History Graph

Daily Weather History Graph

Search for Another Location

Airport or City:

Astronomy

Oct. 09, 2019 Rise Set
Actual Time 6:00 AM MSK 4:59 PM MSK
Civil Twilight 5:23 AM MSK 5:35 PM MSK
Nautical Twilight 4:40 AM MSK 6:18 PM MSK
Astronomical Twilight 3:57 AM MSK 7:01 PM MSK
Moon 4:15 PM MSK (10/9) 12:20 AM MSK (10/9)
Length of Visible Light 12h 12m
Length of Day
10h 58m
Waxing Gibbous, 83% of the Moon is Illuminated
Oct 9
Waxing Gibbous
Oct 14
Full
Oct 21
Last Quarter
Oct 28
New
Nov 4
First Quarter

Hourly Weather History & Observations

Time (MSK) Temp. Windchill Dew Point Humidity Pressure Visibility Wind Dir Wind Speed Gust Speed Precip Events Conditions
12:00 AM 37 °F - 36 °F 96% 30.11 in 6 mi ESE 2.2 mph - - Rain Light Rain
12:00 AM 37.4 °F 33.9 °F 35.6 °F 93% 30.06 in 5.0 mi ENE 4.5 mph - N/A Rain Light Rain
12:30 AM 37.4 °F 33.9 °F 35.6 °F 93% 30.06 in 5.6 mi East 4.5 mph - N/A Rain Light Rain
1:00 AM 37.4 °F 32.2 °F 35.6 °F 93% 30.04 in 6.2 mi East 6.7 mph - N/A   Overcast
1:30 AM 37.4 °F 30.9 °F 35.6 °F 93% 30.04 in 6.2 mi East 8.9 mph - N/A   Overcast
2:00 AM 37.4 °F 30.9 °F 35.6 °F 93% 30.04 in 6.2 mi East 8.9 mph - N/A Rain Light Rain
2:30 AM 37.4 °F 30.9 °F 35.6 °F 93% 30.04 in 5.6 mi East 8.9 mph - N/A Rain Light Rain
3:00 AM 37 °F - 36 °F 94% 30.06 in 6 mi East 4.5 mph - - Rain Light Rain
3:00 AM 37.4 °F 30.9 °F 35.6 °F 93% 30.01 in 5.0 mi East 8.9 mph - N/A Rain Light Rain
3:30 AM 37.4 °F 30.9 °F 35.6 °F 93% 30.01 in 5.0 mi East 8.9 mph - N/A Rain Light Rain
4:00 AM 37.4 °F 32.2 °F 35.6 °F 93% 30.01 in 5.0 mi East 6.7 mph - N/A Rain Light Rain
4:30 AM 37.4 °F 32.2 °F 35.6 °F 93% 30.01 in 4.3 mi East 6.7 mph - N/A Rain Light Rain
5:00 AM 37.4 °F 32.2 °F 35.6 °F 93% 30.01 in 5.0 mi East 6.7 mph - N/A Rain Light Rain
5:30 AM 37.4 °F 32.2 °F 35.6 °F 93% 29.98 in 5.0 mi East 6.7 mph - N/A Rain Light Rain
6:00 AM 37 °F - 36 °F 96% 30.03 in 6 mi East 4.5 mph - -   Overcast
6:00 AM 37.4 °F 32.2 °F 35.6 °F 93% 29.98 in 4.3 mi East 6.7 mph - N/A Rain Light Rain
6:30 AM 37.4 °F 32.2 °F 35.6 °F 93% 29.98 in 3.7 mi ESE 6.7 mph - N/A Rain Light Rain
7:00 AM 37.4 °F 33.9 °F 37.4 °F 100% 30.01 in 4.3 mi ESE 4.5 mph - N/A Rain Light Rain
7:30 AM 39.2 °F 36.0 °F 37.4 °F 93% 29.98 in 5.6 mi SSE 4.5 mph - N/A Rain Light Rain
8:00 AM 39.2 °F 36.0 °F 37.4 °F 93% 29.98 in 6.2 mi WSW 4.5 mph - N/A Rain Light Rain
8:30 AM 39.2 °F 36.0 °F 37.4 °F 93% 29.98 in 6.2 mi WSW 4.5 mph - N/A Rain Light Rain
9:00 AM 39 °F - 38 °F 97% 30.02 in 6 mi WSW 2.2 mph - -   Partly Cloudy
9:00 AM 39.2 °F 36.0 °F 37.4 °F 93% 29.98 in 6.2 mi West 4.5 mph - N/A Rain Light Rain
9:30 AM 39.2 °F 34.4 °F 37.4 °F 93% 29.98 in 5.6 mi West 6.7 mph - N/A Rain Light Rain
10:00 AM 39.2 °F 33.1 °F 37.4 °F 93% 29.98 in 6.2 mi WNW 8.9 mph - N/A   Mostly Cloudy
10:30 AM 41.0 °F 36.5 °F 37.4 °F 87% 29.98 in 6.2 mi West 6.7 mph - N/A   Mostly Cloudy
11:00 AM 41.0 °F 34.4 °F 35.6 °F 81% 29.98 in 6.2 mi WNW 11.2 mph - N/A   Mostly Cloudy
12:00 PM 40 °F - 36 °F 79% 30.01 in 6 mi West 4.5 mph - -   Overcast
12:30 PM 41.0 °F 34.4 °F 35.6 °F 81% 29.98 in 6.2 mi WNW 11.2 mph - N/A   Mostly Cloudy
1:00 PM 41.0 °F 34.4 °F 35.6 °F 81% 29.98 in 6.2 mi WNW 11.2 mph - N/A   Mostly Cloudy
1:30 PM 41.0 °F 33.6 °F 33.8 °F 76% 29.98 in 6.2 mi West 13.4 mph - N/A   Mostly Cloudy
2:00 PM 41.0 °F 33.6 °F 33.8 °F 76% 29.98 in 6.2 mi West 13.4 mph - N/A   Mostly Cloudy
2:30 PM 41.0 °F 34.4 °F 35.6 °F 81% 29.98 in 5.6 mi West 11.2 mph - N/A   Mostly Cloudy
3:00 PM 42 °F - 33 °F 62% 30.02 in 6 mi WNW 4.5 mph - -   Partly Cloudy
3:00 PM 41.0 °F 35.4 °F 35.6 °F 81% 29.98 in 6.2 mi West 8.9 mph - N/A   Mostly Cloudy
3:30 PM 41.0 °F 34.4 °F 33.8 °F 76% 30.01 in 6.2 mi WNW 11.2 mph - N/A   Mostly Cloudy
4:00 PM 41.0 °F 35.4 °F 30.2 °F 65% 30.01 in 6.2 mi WNW 8.9 mph - N/A   Scattered Clouds
4:30 PM 41.0 °F 36.5 °F 32.0 °F 70% 30.01 in - West 6.7 mph - N/A   Clear
5:00 PM 39.2 °F 34.4 °F 30.2 °F 70% 30.01 in - West 6.7 mph - N/A   Clear
5:30 PM 37.4 °F 33.9 °F 30.2 °F 75% 30.01 in - West 4.5 mph - N/A   Clear
6:00 PM 38 °F - 31 °F 66% 30.03 in 6 mi South 2.2 mph - -  
6:30 PM 35.6 °F 31.8 °F 28.4 °F 75% 30.01 in - SW 4.5 mph - N/A   Clear
7:00 PM 35.6 °F 30.0 °F 26.6 °F 70% 30.01 in - WSW 6.7 mph - N/A   Clear
7:30 PM 35.6 °F 30.0 °F 26.6 °F 70% 30.01 in - WSW 6.7 mph - N/A   Clear
8:00 PM 33.8 °F 29.7 °F 28.4 °F 81% 30.01 in - SW 4.5 mph - N/A   Clear
8:30 PM 32.0 °F 25.7 °F 26.6 °F 80% 30.01 in - South 6.7 mph - N/A   Clear
9:00 PM 35 °F - 26 °F 60% 30.02 in 6 mi Calm Calm - -   Clear
9:00 PM 32.0 °F 25.7 °F 26.6 °F 80% 29.98 in - South 6.7 mph - N/A   Clear
9:30 PM 32.0 °F 25.7 °F 28.4 °F 87% 29.98 in 6.2 mi South 6.7 mph - N/A   Scattered Clouds
10:00 PM 33.8 °F 27.9 °F 28.4 °F 81% 29.98 in 6.2 mi South 6.7 mph - N/A   Partly Cloudy
10:30 PM 33.8 °F 27.9 °F 28.4 °F 81% 29.98 in - South 6.7 mph - N/A   Clear
11:00 PM 33.8 °F 26.5 °F 30.2 °F 87% 29.98 in - SSE 8.9 mph - N/A   Clear
11:30 PM 35.6 °F 28.7 °F 30.2 °F 81% 29.98 in 6.2 mi SSE 8.9 mph - N/A   Mostly Cloudy